1327968028412,56.8516
1327968088412,56.8000
1327968148412,56.9545
1327968208412,56.8141
1327968268412,56.7172
1327968328412,56.7354
1327968388412,56.8396
1327968448412,56.6718
1327968508412,56.7333
1327968568412,56.7331
1327968628412,56.7877
1327968688412,56.8525
1327968748412,56.8241
1327968808412,56.7185
1327968868412,56.7454
1327968928412,56.7402
1327968988412,56.8695
1327969048412,56.7638
1327969108412,56.7907
1327969168412,56.7269
1327969228412,56.7338
1327969288412,56.8704
1327969348412,56.7424
1327969408412,56.7462
1327969468412,56.7675
1327969528412,56.7261
1327969588412,56.8853
1327969648412,56.7700
1327969708412,56.7405
1327969768412,56.7553
1327969828412,56.6967
1327969888412,56.7963
1327969948412,56.7606
1327970008412,56.8335
1327970068412,56.7237
1327970128412,56.7955
1327970188412,56.6802
1327970248412,56.6537
1327970308412,56.8202
1327970368412,56.8178
1327970428412,56.7122
1327970488412,56.6500
1327970548412,56.7158
1327970608412,56.9077
1327970668412,56.8779
1327970728412,56.7957
1327970788412,56.7103
1327970848412,56.8788
1327970908412,56.8373
1327970968412,56.7853
1327971028412,56.7584
1327971088412,56.8060
1327971148412,56.7831
1327971208412,56.7949
1327971268412,56.7815
1327971328412,56.7158
1327971388412,56.9238
1327971448412,56.8554
1327971508412,56.8943
1327971568412,56.8754
1327971628422,56.8181
1327971688422,56.8230
1327971748422,56.8542
1327971808422,56.9288
1327971868422,56.9045
1327971928422,56.9092
1327971988422,56.9293
1327972048422,56.9622
1327972108422,56.8147
1327972168422,56.9103
1327972228422,56.8107
1327972288422,56.9211
1327972348422,56.8940
1327972408422,56.9477
1327972468422,56.8861
1327972528422,56.9500
1327972588422,56.8937
1327972648422,56.8343
1327972708422,56.9191
1327972768422,56.9590
1327972828422,57.0537
1327972888422,56.9473
1327972948422,56.8993
1327973008422,56.9867
1327973068422,56.9066
1327973128422,57.0492
1327973188422,56.9790
1327973248422,57.0142
1327973308422,56.8609
1327973368422,56.9021
1327973428422,57.0716
1327973488422,56.8705
1327973548422,57.0500
1327973608422,56.9864
1327973668422,56.8513
1327973728422,56.9828
1327973788422,57.0720
1327973848422,57.0598
1327973908422,57.0011
1327973968422,56.9503
1327974028422,56.9747
1327974088422,57.0219
1327974148422,57.0558
1327974208422,57.1012
1327974268422,57.1560
1327974328422,57.0623
1327974388422,57.0617
1327974448422,57.1798
1327974508422,56.9371
1327974568422,56.9912
1327974628422,57.1356
1327974688422,57.0562
1327974748422,56.9937
1327974808422,57.0384
1327974868422,57.1736
1327974928422,57.1581
1327974988422,57.0550
1327975048422,57.3528
1327975108422,57.2381
1327975168422,57.1228
1327975228432,57.2000
1327975288432,57.2475
1327975348432,57.1351
1327975408432,57.0337
1327975468432,57.1863
1327975528432,57.1042
1327975588432,57.1638
1327975648432,57.1501
1327975708432,57.1836
1327975768432,57.0497
1327975828432,57.2069
1327975888432,57.2419
1327975948432,57.0551
1327976008432,57.1419
1327976068432,57.1367
1327976128432,57.1594
1327976188432,57.2243
1327976248432,57.2012
1327976308432,57.2251
1327976368432,57.1847
1327976428432,57.2730
1327976488432,57.3576
1327976548432,57.2365
1327976608432,57.2195
1327976668432,57.2392
1327976728432,57.1052
1327976788432,57.1735
1327976848432,57.0781
1327976908432,57.2083
1327976968432,56.9957
1327977028432,57.1952
1327977088432,57.0406
1327977148432,57.2704
1327977208432,57.1000
1327977268432,57.1054
1327977328432,57.2550
1327977388432,57.2418
1327977448432,57.0968
1327977508432,57.1718
1327977568432,57.3320
1327977628432,57.2181
1327977688432,57.1478
1327977748432,57.1457
1327977808432,57.1537
1327977868432,57.1919
1327977928432,57.1123
1327977988432,57.2604
1327978048432,57.0334
1327978108432,57.1711
1327978168432,57.0802
1327978228432,57.1150
1327978288432,57.2480
1327978348432,57.0617
1327978408432,57.1693
1327978468432,57.2869
1327978528432,57.2523
1327978588432,57.2969
1327978648432,57.2842
1327978708432,57.4250
1327978768432,57.3468
1327978828443,57.3967
1327978888443,57.1779
1327978948443,57.3430
1327979008443,57.2634
1327979068443,57.2765
1327979128443,57.2834
1327979188443,57.4012
1327979248443,57.4009
1327979308443,57.2694
1327979368443,57.2743
1327979428443,57.1507
1327979488443,57.2568
1327979548443,57.2505
1327979608443,57.2831
1327979668443,57.2347
1327979728443,57.2435
1327979788443,57.2787
1327979848443,57.1705
1327979908443,57.2877
1327979968443,57.2543
1327980028443,57.3000
1327980088443,57.2960
1327980148443,57.1890
1327980208443,57.2112
1327980268443,57.2077
1327980328443,57.1303
1327980388443,57.2254
1327980448443,57.1448
1327980508443,57.0161
1327980568443,57.2518
1327980628443,57.2402
1327980688443,57.1345
1327980748443,57.2090
1327980808443,57.2343
1327980868443,57.1774
1327980928443,57.0639
1327980988443,57.1618
1327981048443,57.2954
1327981108443,57.1953
1327981168443,57.2675
1327981228443,57.0315
1327981288443,57.1239
1327981348443,57.2049
1327981408443,57.0722
1327981468443,57.0927
1327981528443,57.2727
1327981588443,56.9754
1327981648443,57.0427
1327981708443,57.0000
1327981768443,57.2068
1327981828443,57.1040
1327981888443,57.1117
1327981948443,57.1199
1327982008443,56.9487
1327982068443,57.1348
1327982128443,57.0305
1327982188443,57.1001
1327982248443,57.2221
1327982308443,57.2820
1327982368443,57.1443
1327982428453,57.2044
1327982488453,57.1453
1327982548453,57.1082
1327982608453,57.1307
1327982668453,57.0802
1327982728453,56.9857
1327982788453,57.0770
1327982848453,57.0291
1327982908453,57.1521
1327982968453,57.1560
1327983028453,57.1985
1327983088453,57.0947
1327983148453,57.0668
1327983208453,57.1627
1327983268453,57.1305
1327983328453,57.0052
1327983388453,57.0867
1327983448453,57.0648
1327983508453,56.9702
1327983568453,57.1405
1327983628453,57.0742
1327983688453,57.0040
1327983748453,57.0489
1327983808453,57.1401
1327983868453,56.9887
1327983928453,56.9907
1327983988453,57.0326
1327984048453,57.0340
1327984108453,56.9200
1327984168453,56.9795
1327984228453,56.9567
1327984288453,56.9875
1327984348453,57.0209
1327984408453,57.0858
1327984468453,57.0876
1327984528453,57.0740
1327984588453,57.1243
1327984648453,57.0092
1327984708453,57.3295
1327984768453,56.9922
1327984828453,57.1804
1327984888453,57.0436
1327984948453,57.0245
1327985008453,57.1297
1327985068453,57.0729
1327985128453,57.0905
1327985188453,57.1774
1327985248453,57.2306
1327985308453,56.9758
1327985368453,57.1516
1327985428453,56.9163
1327985488453,57.1504
1327985548453,57.2650
1327985608453,56.8871
1327985668453,57.0421
1327985728453,57.0179
1327985788453,56.9644
1327985848453,56.9251
1327985908453,56.9768
1327985968453,57.0058
1327986028464,57.0272
1327986088464,56.9648
1327986148464,56.9604
1327986208464,57.0264
1327986268464,57.0008
1327986328464,57.1103
1327986388464,56.9754
1327986448464,56.9523
1327986508464,57.0410
1327986568464,57.0662
1327986628464,57.0870
1327986688464,57.0021
1327986748464,57.1314
1327986808464,56.9856
1327986868464,57.0794
1327986928464,56.8753
1327986988464,56.8893
1327987048464,57.1404
1327987108464,56.8665
1327987168464,57.0131
1327987228464,56.9808
1327987288464,56.9896
1327987348464,56.9360
1327987408464,56.8731
1327987468464,56.9105
1327987528464,57.0660
1327987588464,57.0112
1327987648464,57.0165
1327987708464,56.9846
1327987768464,56.8525
1327987828464,56.9963
1327987888464,56.8057
1327987948464,57.0249
1327988008464,56.9722
1327988068464,56.9267
1327988128464,56.8726
1327988188464,56.8658
1327988248464,56.8712
1327988308464,56.9031
1327988368464,56.8054
1327988428464,56.8953
1327988488464,56.9087
1327988548464,56.8253
1327988608464,56.8530
1327988668464,56.8020
1327988728464,56.7789
1327988788464,56.8619
1327988848464,56.6602
1327988908464,56.8950
1327988968464,56.8142
1327989028464,56.8358
1327989088464,56.7984
1327989148464,56.8579
1327989208464,56.8975
1327989268464,56.9157
1327989328464,56.7647
1327989388464,56.5867
1327989448464,56.7420
1327989508464,56.7747
1327989568464,56.8080
1327989628475,56.8689
1327989688475,56.8499
1327989748475,56.8035
1327989808475,56.7524
1327989868475,56.7554
1327989928475,56.7182
1327989988475,56.8080
1327990048475,56.8178
1327990108475,56.8256
1327990168475,56.7995
1327990228475,56.6972
1327990288475,56.7526
1327990348475,56.8084
1327990408475,56.6244
1327990468475,56.5926
1327990528475,56.9337
1327990588475,56.8967
1327990648475,56.9144
1327990708475,56.8211
1327990768475,56.8753
1327990828475,56.7923
1327990888475,56.8674
1327990948475,56.9327
1327991008475,56.9107
1327991068475,56.7837
1327991128475,56.7400
1327991188475,56.8839
1327991248475,56.7273
1327991308475,56.8448
1327991368475,56.8154
1327991428475,56.9628
1327991488475,56.8452
1327991548475,56.9026
1327991608475,56.9003
1327991668475,56.8280
1327991728475,56.7246
1327991788475,56.6772
1327991848475,56.7981
1327991908475,56.9146
1327991968475,56.7904
1327992028475,56.7533
1327992088475,56.7726
1327992148475,56.7402
1327992208475,56.9061
1327992268475,56.9004
1327992328475,56.7843
1327992388475,56.8500
1327992448475,56.8490
1327992508475,56.7895
1327992568475,56.8839
1327992628475,56.8918
1327992688475,56.7653
1327992748475,56.8391
1327992808475,56.8136
1327992868475,56.9490
1327992928475,56.8339
1327992988475,56.6820
1327993048475,56.9182
1327993108475,56.8128
1327993168475,56.8669
1327993228487,56.9704
1327993288487,56.9123
1327993348487,56.7698
1327993408487,56.7971
1327993468487,56.8902
1327993528487,56.9557
1327993588487,57.0353
1327993648487,56.9686
1327993708487,56.9849
1327993768487,56.9808
1327993828487,56.7207
1327993888487,56.9261
1327993948487,57.0031
1327994008487,56.9037
1327994068487,57.0049
1327994128487,56.9592
1327994188487,56.9597
1327994248487,56.8575
1327994308487,56.9101
1327994368487,57.0196
1327994428487,56.8545
1327994488487,56.9349
1327994548487,56.9650
1327994608487,57.0134
1327994668487,57.0952
1327994728487,56.9624
1327994788487,56.8752
1327994848487,57.1747
1327994908487,57.0420
1327994968487,57.0014
1327995028487,57.0147
1327995088487,57.0686
1327995148487,56.9983
1327995208487,56.9895
1327995268487,56.9822
1327995328487,57.0236
1327995388487,56.7869
1327995448487,57.0029
1327995508487,57.0048
1327995568487,57.0391
1327995628487,56.8428
1327995688487,56.9165
1327995748487,56.9707
1327995808487,57.0147
1327995868487,56.9631
1327995928487,56.9744
1327995988487,56.8725
1327996048487,56.9935
1327996108487,57.0734
1327996168487,56.9883
1327996228487,56.8730
1327996288487,56.9970
1327996348487,57.0205
1327996408487,56.8450
1327996468487,57.0228
1327996528487,57.0398
1327996588487,56.9143
1327996648487,57.0058
1327996708487,56.9496
1327996768487,57.0085
1327996828498,57.1730
1327996888498,57.1861
1327996948498,57.1459
1327997008498,57.1345
1327997068498,56.9230
1327997128498,57.1125
1327997188498,57.1081
1327997248498,56.9841
1327997308498,56.9939
1327997368498,57.0040
1327997428498,57.0164
1327997488498,57.1067
1327997548498,57.1591
1327997608498,56.9933
1327997668498,56.9482
1327997728498,56.8331
1327997788498,56.9694
1327997848498,57.0237
1327997908498,56.9125
1327997968498,57.0930
1327998028498,56.9524
1327998088498,57.0976
1327998148498,57.1361
1327998208498,56.9042
1327998268498,57.2254
1327998328498,57.1213
1327998388498,57.2804
1327998448498,56.9277
1327998508498,56.9980
1327998568498,57.0686
1327998628498,57.0413
1327998688498,57.1281
1327998748498,57.1936
1327998808498,57.1813
1327998868498,57.2157
1327998928498,57.1015
1327998988498,57.1612
1327999048498,57.1101
1327999108498,56.9925
1327999168498,57.2353
1327999228498,57.1547
1327999288498,57.0784
1327999348498,57.1288
1327999408498,57.3057
1327999468498,57.1784
1327999528498,57.0127
1327999588498,57.1508
1327999648498,57.1897
1327999708498,57.1234
1327999768498,57.0341
1327999828498,57.0365
1327999888498,57.0662
1327999948498,57.1277
1328000008498,57.0661
1328000068498,57.0697
1328000128498,57.0271
1328000188498,57.2682
1328000248498,57.1043
1328000308498,57.1941
1328000368498,57.1186
1328000428510,56.9335
1328000488510,57.1369
1328000548510,56.9484
1328000608510,57.1416
1328000668510,56.9762
1328000728510,57.1002
1328000788510,56.8427
1328000848510,57.0842
1328000908510,56.9913
1328000968510,56.9085
1328001028510,56.9249
1328001088510,57.0097
1328001148510,56.9720
1328001208510,57.1112
1328001268510,57.0774
1328001328510,57.0554
1328001388510,57.0337
1328001448510,56.9680
1328001508510,56.9912
1328001568510,57.0010
1328001628510,57.1102
1328001688510,57.2296
1328001748510,57.0776
1328001808510,56.9912
1328001868510,57.1049
1328001928510,56.9800
1328001988510,56.9693
1328002048510,57.3089
1328002108510,57.0838
1328002168510,56.9481
1328002228510,56.9182
1328002288510,57.0777
1328002348510,57.0694
1328002408510,56.9600
1328002468510,57.0026
1328002528510,57.0162
1328002588510,56.9795
1328002648510,57.0050
1328002708510,57.0057
1328002768510,56.9953
1328002828510,57.0093
1328002888510,56.9719
1328002948510,57.1028
1328003008510,57.0178
1328003068510,57.1975
1328003128510,57.0156
1328003188510,57.0713
1328003248510,57.0836
1328003308510,57.1264
1328003368510,57.1154
1328003428510,57.0547
1328003488510,57.0333
1328003548510,57.1333
1328003608510,56.9724
1328003668510,57.2282
1328003728510,57.0540
1328003788510,57.0114
1328003848510,57.1839
1328003908510,57.1332
1328003968510,57.0789
1328004028521,57.0099
1328004088521,57.0448
1328004148521,57.1476
1328004208521,57.0288
1328004268521,57.0419
1328004328521,57.0823
1328004388521,57.0071
1328004448521,57.0371
1328004508521,57.0940
1328004568521,57.0415
1328004628521,57.0649
1328004688521,57.2149
1328004748521,57.0219
1328004808521,57.0635
1328004868521,57.0217
1328004928521,57.0487
1328004988521,56.9912
1328005048521,56.8724
1328005108521,57.0260
1328005168521,57.1558
1328005228521,57.0952
1328005288521,57.1455
1328005348521,57.1082
1328005408521,57.3006
1328005468521,57.0874
1328005528521,56.9510
1328005588521,57.0724
1328005648521,57.1044
1328005708521,57.1328
1328005768521,56.9695
1328005828521,56.9595
1328005888521,57.0097
1328005948521,57.1715
1328006008521,56.9849
1328006068521,56.9937
1328006128521,57.0619
1328006188521,57.0257
1328006248521,57.0224
1328006308521,57.1245
1328006368521,57.0676
1328006428521,57.0680
1328006488521,57.1324
1328006548521,57.0636
1328006608521,57.0556
1328006668521,57.0308
1328006728521,57.0313
1328006788521,56.9731
1328006848521,57.0745
1328006908521,57.0930
1328006968521,57.0823
1328007028521,57.0316
1328007088521,56.9318
1328007148521,56.8854
1328007208521,57.0679
1328007268521,57.0459
1328007328521,57.0519
1328007388521,57.1577
1328007448521,57.0063
1328007508521,56.8503
1328007568521,57.0059
1328007628533,56.9378
1328007688533,56.9789
1328007748533,57.0279
1328007808533,57.1327
1328007868533,57.1540
1328007928533,57.2322
1328007988533,57.0995
1328008048533,57.1103
1328008108533,57.1372
1328008168533,57.1145
1328008228533,57.1460
1328008288533,57.1161
1328008348533,57.1214
1328008408533,57.1035
1328008468533,57.0207
1328008528533,57.1011
1328008588533,57.0174
1328008648533,57.1045
1328008708533,57.1949
1328008768533,57.1009
1328008828533,57.0973
1328008888533,57.0557
1328008948533,57.0559
1328009008533,57.1149
1328009068533,57.1588
1328009128533,57.0848
1328009188533,57.1060
1328009248533,57.2537
1328009308533,57.1973
1328009368533,57.0705
1328009428533,57.2221
1328009488533,57.2263
1328009548533,57.1579
1328009608533,57.2235
1328009668533,57.2996
1328009728533,57.1629
1328009788533,57.1749
1328009848533,57.2110
1328009908533,57.3153
1328009968533,57.2017
1328010028533,57.4201
1328010088533,57.3289
1328010148533,57.2527
1328010208533,57.1406
1328010268533,57.1644
1328010328533,57.3536
1328010388533,57.2080
1328010448533,57.4051
1328010508533,57.2998
1328010568533,57.2022
1328010628533,57.4280
1328010688533,57.3201
1328010748533,57.3684
1328010808533,57.4920
1328010868533,57.5503
1328010928533,57.3470
1328010988533,57.4419
1328011048533,57.4975
1328011108533,57.5347
1328011168533,57.5135
1328011228545,57.5942
1328011288545,57.4175
1328011348545,57.5601
1328011408544,57.5852
1328011468544,57.3669
1328011528544,57.5258
1328011588544,57.5801
1328011648544,57.4782
1328011708545,57.6193
1328011768545,57.4582
1328011828545,57.4705
1328011888545,57.5969
1328011948545,57.5687
1328012008545,57.5685
1328012068545,57.5491
1328012128545,57.6736
1328012188545,57.6359
1328012248545,57.4687
1328012308545,57.5827
1328012368545,57.6096
1328012428545,57.6804
1328012488545,57.7193
1328012548545,57.7372
1328012608545,57.5534
1328012668545,57.6463
1328012728544,57.7394
1328012788544,57.7161
1328012848544,57.7441
1328012908544,57.8005
1328012968544,57.7343
1328013028545,57.5682
1328013088545,57.5925
1328013148545,57.5654
1328013208545,57.6485
1328013268545,57.6250
1328013328545,57.7417
1328013388545,57.5997
1328013448545,57.6082
1328013508545,57.7700
1328013568545,57.4415
1328013628545,57.5600
1328013688545,57.5234
1328013748545,57.4999
1328013808545,57.4503
1328013868545,57.6342
1328013928545,57.4774
1328013988545,57.3774
1328014048545,57.7265
1328014108544,57.6013
1328014168544,57.3474
1328014228544,57.3566
1328014288544,57.4891
1328014348544,57.2902
1328014408545,57.4221
1328014468545,57.4679
1328014528545,57.5771
1328014588545,57.4690
1328014648545,57.5195
1328014708545,57.4978
1328014768545,57.4691
1328014828556,57.5210
1328014888556,57.4052
1328014948556,57.6137
1328015008556,57.4106
1328015068556,57.2975
1328015128556,57.3909
1328015188556,57.2915
1328015248556,57.4316
1328015308556,57.3305
1328015368556,57.4159
1328015428556,57.4987
1328015488556,57.4045
1328015548556,57.3111
1328015608556,57.3587
1328015668556,57.4535
1328015728556,57.3293
1328015788556,57.4656
1328015848556,57.1799
1328015908556,57.2876
1328015968556,57.4234
1328016028556,57.3844
1328016088556,57.3901
1328016148556,57.3026
1328016208556,57.2814
1328016268556,57.3216
1328016328556,57.4043
1328016388556,57.2257
1328016448556,57.2517
1328016508556,57.3416
1328016568556,57.3215
1328016628556,57.3320
1328016688556,57.4482
1328016748556,57.3832
1328016808556,57.2616
1328016868556,57.4546
1328016928556,57.1105
1328016988556,57.1217
1328017048556,57.2654
1328017108556,57.3166
1328017168556,57.2168
1328017228556,57.1791
1328017288556,57.1811
1328017348556,57.1602
1328017408556,57.2377
1328017468556,57.2651
1328017528556,57.1145
1328017588556,57.1479
1328017648556,57.3007
1328017708556,57.1741
1328017768556,57.2344
1328017828556,57.0799
1328017888556,57.2088
1328017948556,57.1109
1328018008556,57.0735
1328018068556,57.2175
1328018128556,57.0603
1328018188556,57.1600
1328018248556,57.1550
1328018308556,57.2202
1328018368556,57.1282
1328018428568,57.0568
1328018488568,57.1155
1328018548568,57.1812
1328018608568,57.1106
1328018668568,57.1310
1328018728568,57.2440
1328018788568,57.1518
1328018848568,57.1175
1328018908568,57.3335
1328018968568,57.1595
1328019028568,57.2569
1328019088568,57.2465
1328019148568,57.2141
1328019208568,57.2673
1328019268568,57.2125
1328019328568,57.3587
1328019388568,57.3586
1328019448568,57.2740
1328019508568,57.3531
1328019568568,57.4161
1328019628568,57.3603
1328019688568,57.3267
1328019748568,57.2780
1328019808568,57.1920
1328019868568,57.2942
1328019928568,57.4062
1328019988568,57.3926
1328020048568,57.2815
1328020108568,57.5168
1328020168568,57.1683
1328020228568,57.3277
1328020288568,57.4619
1328020348568,57.3276
1328020408568,57.4256
1328020468568,57.3716
1328020528568,57.1663
1328020588568,57.4048
1328020648568,57.2936
1328020708568,57.2515
1328020768568,57.3715
1328020828568,57.2512
1328020888568,57.2342
1328020948568,57.4143
1328021008568,57.3642
1328021068568,57.4213
1328021128568,57.3311
1328021188568,57.1792
1328021248568,57.3892
1328021308568,57.5534
1328021368568,57.3616
1328021428568,57.5502
1328021488568,57.3347
1328021548568,57.2393
1328021608568,57.2374
1328021668568,57.3640
1328021728568,57.4908
1328021788568,57.3612
1328021848568,57.3029
1328021908568,57.3254
1328021968568,57.2441
1328022028579,57.3810
1328022088579,57.1435
1328022148579,57.4192
1328022208579,57.4476
1328022268579,57.4947
1328022328579,57.3191
1328022388579,57.5554
1328022448579,57.4607
1328022508579,57.4003
1328022568579,57.4306
1328022628579,57.4897
1328022688579,57.4500
1328022748579,57.5006
1328022808579,57.4309
1328022868579,57.4849
1328022928579,57.4783
1328022988579,57.4731
1328023048579,57.4180
1328023108579,57.4962
1328023168579,57.4158
1328023228579,57.4013
1328023288579,57.3845
1328023348579,57.4954
1328023408579,57.2549
1328023468579,57.3168
1328023528579,57.4179
1328023588579,57.3463
1328023648579,57.4220
1328023708579,57.4277
1328023768579,57.2371
1328023828579,57.2770
1328023888579,57.1824
1328023948579,57.3592
1328024008579,57.2141
1328024068579,57.1633
1328024128579,57.1419
1328024188579,57.2538
1328024248579,57.1289
1328024308579,56.9839
1328024368579,57.0429
1328024428579,57.1566
1328024488579,57.4610
1328024548579,57.2484
1328024608579,57.2333
1328024668579,57.2188
1328024728579,57.1733
1328024788579,57.3263
1328024848579,57.2714
1328024908579,57.1343
1328024968579,57.1878
1328025028579,57.1435
1328025088579,57.3464
1328025148579,57.1640
1328025208579,57.2162
1328025268579,57.1827
1328025328579,57.1944
1328025388579,57.0882
1328025448579,57.1692
1328025508579,57.1386
1328025568579,57.1255
1328025628590,57.2773
1328025688590,56.9578
1328025748590,57.1222
1328025808590,57.0693
1328025868590,57.0832
1328025928590,57.0463
1328025988590,57.1390
1328026048590,57.0425
1328026108590,57.1305
1328026168590,57.1189
1328026228590,57.0109
1328026288590,57.0796
1328026348590,57.0608
1328026408590,57.0663
1328026468590,57.2420
1328026528590,57.2267
1328026588591,57.1355
1328026648590,57.0350
1328026708590,57.0788
1328026768590,57.0644
1328026828590,57.1199
1328026888590,57.1579
1328026948590,57.1097
1328027008590,57.0912
1328027068590,57.1121
1328027128590,57.0902
1328027188590,57.1400
1328027248590,57.1126
1328027308590,57.1228
1328027368590,57.2487
1328027428590,57.1655
1328027488590,57.1049
1328027548590,57.3465
1328027608590,57.3674
1328027668590,57.0952
1328027728590,57.0590
1328027788590,57.2111
1328027848590,57.3180
1328027908591,57.3740
1328027968591,57.2609
1328028028590,57.1532
1328028088590,57.2343
1328028148590,57.2383
1328028208590,57.3915
1328028268590,57.2788
1328028328590,57.3468
1328028388590,57.3020
1328028448590,57.3494
1328028508590,57.3355
1328028568590,57.2524
1328028628590,57.1424
1328028688590,57.1226
1328028748590,57.3258
1328028808590,57.2445
1328028868590,57.2034
1328028928590,57.2063
1328028988590,57.3018
1328029048590,57.3088
1328029108590,57.2576
1328029168590,57.0764
1328029228602,57.2172
1328029288602,57.1835
1328029348602,57.3372
1328029408602,57.0528
1328029468602,57.1695
1328029528602,57.1534
1328029588602,57.2749
1328029648602,57.2625
1328029708602,57.2286
1328029768602,57.0859
1328029828602,57.2208
1328029888602,57.1082
1328030428602,57.2273
1328030488602,57.0974
1328030548602,57.1230
1328030608602,57.0746
1328030668602,57.1645
1328030728602,57.1812
1328030788602,57.1768
1328030848602,57.1580
1328030908602,57.1847
1328030968602,57.1737
1328031028602,57.1431
1328031088602,57.1670
1328031148602,57.1034
1328031208602,57.0530
1328031268602,57.0674
1328031328602,57.0409
1328031388602,57.1399
1328031448602,57.2043
1328031508602,57.1908
1328031568602,57.1443
1328031628602,57.4109
1328031688602,57.0986
1328031748602,57.1320
1328031808602,57.1343
1328031868602,57.1371
1328031928602,57.2458
1328031988602,57.1070
1328032048602,57.1800
1328032108602,57.0848
1328032168602,57.1042
1328032228602,57.0814
1328032288602,57.2084
1328032348602,57.2596
1328032408602,57.2786
1328032468602,57.2301
1328032528602,57.2706
1328032588602,57.2062
1328032648602,57.2255
1328032708602,57.1805
1328032768602,57.0869
1328032828613,57.0351
1328032888613,57.1398
1328032948613,57.2002
1328033008613,57.1080
1328033068613,57.5431
1328033128613,57.2017
1328033188613,57.0210
1328033248613,57.1593
1328033308613,57.0707
1328033368613,56.9104
1328033428613,57.1032
1328033488613,57.1158
1328033548613,57.1179
1328033608613,57.0542
1328033668613,57.1922
1328033728613,57.0475
1328033788613,57.0833
1328033848613,57.1048